owner,sensor,date,latitude,longitude,vertical_datum,wind_speed,wind_to_direction,wind_speed_of_gust,qcFlag 
DISL,ioos:station:DISL:MHPA:1,2014-01-01T06:30:00Z,30.6671,-87.9365,8.5,0.88,355.2,-9999.0,'1111122,1111122,1111122' 
DISL,ioos:station:DISL:MHPA:1,2014-01-01T07:00:00Z,30.6671,-87.9365,8.5,1.11,4.273,-9999.0,'1111122,1111122,1111122' 
DISL,ioos:station:DISL:MHPA:1,2014-01-01T07:30:00Z,30.6671,-87.9365,8.5,0.58,3.601,-9999.0,'1111122,1111122,1111122' 
DISL,ioos:station:DISL:MHPA:1,2014-01-01T08:00:00Z,30.6671,-87.9365,8.5,0.54,46.81,-9999.0,'1111122,1111122,1111122' 
DISL,ioos:station:DISL:MHPA:1,2014-01-01T08:30:00Z,30.6671,-87.9365,8.5,0.27,88.1,-9999.0,'1111122,1111122,1111122' 
DISL,ioos:station:DISL:MHPA:1,2014-01-01T09:00:00Z,30.6671,-87.9365,8.5,0.66,83.8,-9999.0,'1111122,1111122,1111122' 
DISL,ioos:station:DISL:MHPA:1,2014-01-01T09:30:00Z,30.6671,-87.9365,8.5,1.83,107.7,-9999.0,'1111122,1111122,1111122' 
DISL,ioos:station:DISL:MHPA:1,2014-01-01T10:00:00Z,30.6671,-87.9365,8.5,2.7,96.3,-9999.0,'1111122,1111122,1111122' 
DISL,ioos:station:DISL:MHPA:1,2014-01-01T10:30:00Z,30.6671,-87.9365,8.5,1.58,68.06,-9999.0,'1111122,1111122,1111122' 
DISL,ioos:station:DISL:MHPA:1,2014-01-01T11:00:00Z,30.6671,-87.9365,8.5,1.45,316.5,-9999.0,'1111122,1111122,1111122' 
DISL,ioos:station:DISL:MHPA:1,2014-01-01T11:30:00Z,30.6671,-87.9365,8.5,0.74,350.8,-9999.0,'1111122,1111122,1111122' 
DISL,ioos:station:DISL:MHPA:1,2014-01-01T12:00:00Z,30.6671,-87.9365,8.5,0.41,348.9,-9999.0,'1111122,1111122,1111122' 
DISL,ioos:station:DISL:MHPA:1,2014-01-01T12:30:00Z,30.6671,-87.9365,8.5,0.92,15.87,-9999.0,'1111122,1111122,1111122' 
DISL,ioos:station:DISL:MHPA:1,2014-01-01T13:00:00Z,30.6671,-87.9365,8.5,1.29,99.7,-9999.0,'1111122,1111122,1111122' 
DISL,ioos:station:DISL:MHPA:1,2014-01-01T13:30:00Z,30.6671,-87.9365,8.5,1.87,112.3,-9999.0,'1111122,1111122,1111122' 
DISL,ioos:station:DISL:MHPA:1,2014-01-01T14:00:00Z,30.6671,-87.9365,8.5,1.12,105.2,-9999.0,'1111122,1111122,1111122' 
DISL,ioos:station:DISL:MHPA:1,2014-01-01T14:30:00Z,30.6671,-87.9365,8.5,0.77,348.5,-9999.0,'1111122,1111122,1111122' 
DISL,ioos:station:DISL:MHPA:1,2014-01-01T15:00:00Z,30.6671,-87.9365,8.5,1.15,22.04,-9999.0,'1111122,1111122,1111122' 
DISL,ioos:station:DISL:MHPA:1,2014-01-01T15:30:00Z,30.6671,-87.9365,8.5,1.72,337.7,-9999.0,'1111122,1111122,1111122' 
DISL,ioos:station:DISL:MHPA:1,2014-01-01T16:00:00Z,30.6671,-87.9365,8.5,1.15,5.29,-9999.0,'1111122,1111122,1111122' 
DISL,ioos:station:DISL:MHPA:1,2014-01-01T16:30:00Z,30.6671,-87.9365,8.5,1.53,346.9,-9999.0,'1111122,1111122,1111122' 
DISL,ioos:station:DISL:MHPA:1,2014-01-01T17:00:00Z,30.6671,-87.9365,8.5,1.0,99.4,-9999.0,'1111122,1111122,1111122' 
DISL,ioos:station:DISL:MHPA:1,2014-01-01T17:30:00Z,30.6671,-87.9365,8.5,2.19,97.4,-9999.0,'1111122,1111122,1111122' 
DISL,ioos:station:DISL:MHPA:1,2014-01-01T18:00:00Z,30.6671,-87.9365,8.5,1.74,81.9,-9999.0,'1111122,1111122,1111122' 
DISL,ioos:station:DISL:MHPA:1,2014-01-01T18:30:00Z,30.6671,-87.9365,8.5,1.57,93.4,-9999.0,'1111122,1111122,1111122' 
DISL,ioos:station:DISL:MHPA:1,2014-01-01T19:00:00Z,30.6671,-87.9365,8.5,3.11,111.2,-9999.0,'1111122,1111122,1111122' 
DISL,ioos:station:DISL:MHPA:1,2014-01-01T19:30:00Z,30.6671,-87.9365,8.5,1.7,109.6,-9999.0,'1111122,1111122,1111122' 
DISL,ioos:station:DISL:MHPA:1,2014-01-01T20:00:00Z,30.6671,-87.9365,8.5,1.46,238.7,-9999.0,'1111122,1111122,1111122' 
DISL,ioos:station:DISL:MHPA:1,2014-01-01T20:30:00Z,30.6671,-87.9365,8.5,1.21,232.9,-9999.0,'1111122,1111122,1111122' 
DISL,ioos:station:DISL:MHPA:1,2014-01-01T21:00:00Z,30.6671,-87.9365,8.5,0.92,242.9,-9999.0,'1111122,1111122,1111122' 
DISL,ioos:station:DISL:MHPA:1,2014-01-01T21:30:00Z,30.6671,-87.9365,8.5,0.37,242.2,-9999.0,'1111122,1111122,1111122' 
DISL,ioos:station:DISL:MHPA:1,2014-01-01T22:00:00Z,30.6671,-87.9365,8.5,1.06,332.4,-9999.0,'1111122,1111122,1111122' 
DISL,ioos:station:DISL:MHPA:1,2014-01-01T22:30:00Z,30.6671,-87.9365,8.5,1.83,336.3,-9999.0,'1111122,1111122,1111122' 
DISL,ioos:station:DISL:MHPA:1,2014-01-01T23:00:00Z,30.6671,-87.9365,8.5,1.27,327.4,-9999.0,'1111122,1111122,1111122' 
DISL,ioos:station:DISL:MHPA:1,2014-01-01T23:30:00Z,30.6671,-87.9365,8.5,1.56,346.8,-9999.0,'1111122,1111122,1111122' 
DISL,ioos:station:DISL:MHPA:1,2014-01-02T00:00:00Z,30.6671,-87.9365,8.5,3.24,323.4,-9999.0,'1111122,1111122,1111122' 
DISL,ioos:station:DISL:MHPA:1,2014-01-02T00:30:00Z,30.6671,-87.9365,8.5,1.12,357.0,-9999.0,'1111122,1111122,1111122' 
DISL,ioos:station:DISL:MHPA:1,2014-01-02T01:00:00Z,30.6671,-87.9365,8.5,0.65,81.7,-9999.0,'1111122,1111122,1111122' 
DISL,ioos:station:DISL:MHPA:1,2014-01-02T01:30:00Z,30.6671,-87.9365,8.5,0.67,96.8,-9999.0,'1111122,1111122,1111122' 
DISL,ioos:station:DISL:MHPA:1,2014-01-02T02:00:00Z,30.6671,-87.9365,8.5,2.17,349.4,-9999.0,'1111122,1111122,1111122' 
DISL,ioos:station:DISL:MHPA:1,2014-01-02T02:30:00Z,30.6671,-87.9365,8.5,1.27,12.49,-9999.0,'1111122,1111122,1111122' 
DISL,ioos:station:DISL:MHPA:1,2014-01-02T03:00:00Z,30.6671,-87.9365,8.5,1.08,348.8,-9999.0,'1111122,1111122,1111122' 
DISL,ioos:station:DISL:MHPA:1,2014-01-02T03:30:00Z,30.6671,-87.9365,8.5,1.62,104.2,-9999.0,'1111122,1111122,1111122' 
DISL,ioos:station:DISL:MHPA:1,2014-01-02T04:00:00Z,30.6671,-87.9365,8.5,3.43,94.7,-9999.0,'1111122,1111122,1111122' 
DISL,ioos:station:DISL:MHPA:1,2014-01-02T04:30:00Z,30.6671,-87.9365,8.5,2.62,74.1,-9999.0,'1111122,1111122,1111122' 
DISL,ioos:station:DISL:MHPA:1,2014-01-02T05:00:00Z,30.6671,-87.9365,8.5,3.02,346.3,-9999.0,'1111122,1111122,1111122' 
DISL,ioos:station:DISL:MHPA:1,2014-01-02T05:30:00Z,30.6671,-87.9365,8.5,2.69,357.1,-9999.0,'1111122,1111122,1111122' 
DISL,ioos:station:DISL:MHPA:1,2014-01-02T06:00:00Z,30.6671,-87.9365,8.5,1.62,33.01,-9999.0,'1111122,1111122,1111122' 
DISL,ioos:station:DISL:MHPA:1,2014-01-02T06:30:00Z,30.6671,-87.9365,8.5,1.21,55.07,-9999.0,'1111122,1111122,1111122' 
DISL,ioos:station:DISL:MHPA:1,2014-01-02T07:00:00Z,30.6671,-87.9365,8.5,0.77,53.56,-9999.0,'1111122,1111122,1111122' 
DISL,ioos:station:DISL:MHPA:1,2014-01-02T07:30:00Z,30.6671,-87.9365,8.5,0.4,67.92,-9999.0,'1111122,1111122,1111122' 
DISL,ioos:station:DISL:MHPA:1,2014-01-02T08:00:00Z,30.6671,-87.9365,8.5,1.05,71.9,-9999.0,'1111122,1111122,1111122' 
DISL,ioos:station:DISL:MHPA:1,2014-01-02T08:30:00Z,30.6671,-87.9365,8.5,3.0,103.5,-9999.0,'1111122,1111122,1111122' 
DISL,ioos:station:DISL:MHPA:1,2014-01-02T09:00:00Z,30.6671,-87.9365,8.5,2.38,78.3,-9999.0,'1111122,1111122,1111122' 
DISL,ioos:station:DISL:MHPA:1,2014-01-02T09:30:00Z,30.6671,-87.9365,8.5,1.34,322.4,-9999.0,'1111122,1111122,1111122' 
DISL,ioos:station:DISL:MHPA:1,2014-01-02T10:00:00Z,30.6671,-87.9365,8.5,1.04,109.1,-9999.0,'1111122,1111122,1111122' 
DISL,ioos:station:DISL:MHPA:1,2014-01-02T10:30:00Z,30.6671,-87.9365,8.5,1.2,90.9,-9999.0,'1111122,1111122,1111122' 
DISL,ioos:station:DISL:MHPA:1,2014-01-02T11:00:00Z,30.6671,-87.9365,8.5,2.35,89.4,-9999.0,'1111122,1111122,1111122' 
DISL,ioos:station:DISL:MHPA:1,2014-01-02T11:30:00Z,30.6671,-87.9365,8.5,1.85,100.8,-9999.0,'1111122,1111122,1111122' 
DISL,ioos:station:DISL:MHPA:1,2014-01-02T12:00:00Z,30.6671,-87.9365,8.5,2.78,116.9,-9999.0,'1111122,1111122,1111122' 
DISL,ioos:station:DISL:MHPA:1,2014-01-02T12:30:00Z,30.6671,-87.9365,8.5,1.27,92.3,-9999.0,'1111122,1111122,1111122' 
DISL,ioos:station:DISL:MHPA:1,2014-01-02T13:00:00Z,30.6671,-87.9365,8.5,0.92,331.2,-9999.0,'1111122,1111122,1111122' 
DISL,ioos:station:DISL:MHPA:1,2014-01-02T13:30:00Z,30.6671,-87.9365,8.5,1.26,120.4,-9999.0,'1111122,1111122,1111122' 
DISL,ioos:station:DISL:MHPA:1,2014-01-02T14:00:00Z,30.6671,-87.9365,8.5,4.53,313.2,-9999.0,'1111122,1111122,1111122' 
DISL,ioos:station:DISL:MHPA:1,2014-01-02T14:30:00Z,30.6671,-87.9365,8.5,1.33,96.0,-9999.0,'1111122,1111122,1111122' 
DISL,ioos:station:DISL:MHPA:1,2014-01-02T15:00:00Z,30.6671,-87.9365,8.5,0.17,21.5,-9999.0,'1111122,1111122,1111122' 
DISL,ioos:station:DISL:MHPA:1,2014-01-02T15:30:00Z,30.6671,-87.9365,8.5,1.75,314.3,-9999.0,'1111122,1111122,1111122' 
DISL,ioos:station:DISL:MHPA:1,2014-01-02T16:00:00Z,30.6671,-87.9365,8.5,2.41,321.6,-9999.0,'1111122,1111122,1111122' 
DISL,ioos:station:DISL:MHPA:1,2014-01-02T16:30:00Z,30.6671,-87.9365,8.5,3.22,321.6,-9999.0,'1111122,1111122,1111122' 
DISL,ioos:station:DISL:MHPA:1,2014-01-02T17:00:00Z,30.6671,-87.9365,8.5,4.39,315.8,-9999.0,'1111122,1111122,1111122' 
DISL,ioos:station:DISL:MHPA:1,2014-01-02T17:30:00Z,30.6671,-87.9365,8.5,5.43,315.8,-9999.0,'1111122,1111122,1111122' 
DISL,ioos:station:DISL:MHPA:1,2014-01-02T18:00:00Z,30.6671,-87.9365,8.5,5.25,309.1,-9999.0,'1111122,1111122,1111122' 
DISL,ioos:station:DISL:MHPA:1,2014-01-02T18:30:00Z,30.6671,-87.9365,8.5,6.48,314.9,-9999.0,'1111122,1111122,1111122' 
DISL,ioos:station:DISL:MHPA:1,2014-01-02T19:00:00Z,30.6671,-87.9365,8.5,6.06,315.6,-9999.0,'1111122,1111122,1111122' 
DISL,ioos:station:DISL:MHPA:1,2014-01-02T19:30:00Z,30.6671,-87.9365,8.5,9.3,311.3,-9999.0,'1111122,1111122,1111122' 
DISL,ioos:station:DISL:MHPA:1,2014-01-02T20:00:00Z,30.6671,-87.9365,8.5,8.88,323.2,-9999.0,'1111122,1111122,1111122' 
DISL,ioos:station:DISL:MHPA:1,2014-01-02T20:30:00Z,30.6671,-87.9365,8.5,10.14,326.5,-9999.0,'1111122,1111122,1111122' 
DISL,ioos:station:DISL:MHPA:1,2014-01-02T21:00:00Z,30.6671,-87.9365,8.5,9.36,326.7,-9999.0,'1111122,1111122,1111122' 
DISL,ioos:station:DISL:MHPA:1,2014-01-02T21:30:00Z,30.6671,-87.9365,8.5,9.19,325.0,-9999.0,'1111122,1111122,1111122' 
DISL,ioos:station:DISL:MHPA:1,2014-01-02T22:00:00Z,30.6671,-87.9365,8.5,8.06,330.1,-9999.0,'1111122,1111122,1111122' 
DISL,ioos:station:DISL:MHPA:1,2014-01-02T22:30:00Z,30.6671,-87.9365,8.5,8.0,323.0,-9999.0,'1111122,1111122,1111122' 
DISL,ioos:station:DISL:MHPA:1,2014-01-02T23:00:00Z,30.6671,-87.9365,8.5,8.47,325.6,-9999.0,'1111122,1111122,1111122' 
DISL,ioos:station:DISL:MHPA:1,2014-01-02T23:30:00Z,30.6671,-87.9365,8.5,7.42,331.3,-9999.0,'1111122,1111122,1111122' 
DISL,ioos:station:DISL:MHPA:1,2014-01-03T00:00:00Z,30.6671,-87.9365,8.5,6.69,333.0,-9999.0,'1111122,1111122,1111122' 
DISL,ioos:station:DISL:MHPA:1,2014-01-03T00:30:00Z,30.6671,-87.9365,8.5,6.11,328.3,-9999.0,'1111122,1111122,1111122' 
DISL,ioos:station:DISL:MHPA:1,2014-01-03T01:00:00Z,30.6671,-87.9365,8.5,6.33,334.8,-9999.0,'1111122,1111122,1111122' 
DISL,ioos:station:DISL:MHPA:1,2014-01-03T01:30:00Z,30.6671,-87.9365,8.5,5.65,335.0,-9999.0,'1111122,1111122,1111122' 
DISL,ioos:station:DISL:MHPA:1,2014-01-03T02:00:00Z,30.6671,-87.9365,8.5,5.41,339.4,-9999.0,'1111122,1111122,1111122' 
DISL,ioos:station:DISL:MHPA:1,2014-01-03T02:30:00Z,30.6671,-87.9365,8.5,5.53,327.4,-9999.0,'1111122,1111122,1111122' 
DISL,ioos:station:DISL:MHPA:1,2014-01-03T03:00:00Z,30.6671,-87.9365,8.5,5.46,336.3,-9999.0,'1111122,1111122,1111122' 
DISL,ioos:station:DISL:MHPA:1,2014-01-03T03:30:00Z,30.6671,-87.9365,8.5,6.75,339.3,-9999.0,'1111122,1111122,1111122' 
DISL,ioos:station:DISL:MHPA:1,2014-01-03T04:00:00Z,30.6671,-87.9365,8.5,5.84,331.3,-9999.0,'1111122,1111122,1111122' 
DISL,ioos:station:DISL:MHPA:1,2014-01-03T04:30:00Z,30.6671,-87.9365,8.5,5.63,329.7,-9999.0,'1111122,1111122,1111122' 
DISL,ioos:station:DISL:MHPA:1,2014-01-03T05:00:00Z,30.6671,-87.9365,8.5,6.33,331.9,-9999.0,'1111122,1111122,1111122' 
DISL,ioos:station:DISL:MHPA:1,2014-01-03T05:30:00Z,30.6671,-87.9365,8.5,6.15,341.7,-9999.0,'1111122,1111122,1111122' 
DISL,ioos:station:DISL:MHPA:1,2014-01-03T06:00:00Z,30.6671,-87.9365,8.5,5.48,334.8,-9999.0,'1111122,1111122,1111122' 
DISL,ioos:station:DISL:MHPA:1,2014-01-03T06:30:00Z,30.6671,-87.9365,8.5,5.0,335.3,-9999.0,'1111122,1111122,1111122' 
DISL,ioos:station:DISL:MHPA:1,2014-01-03T07:00:00Z,30.6671,-87.9365,8.5,6.35,332.9,-9999.0,'1111122,1111122,1111122' 
DISL,ioos:station:DISL:MHPA:1,2014-01-03T07:30:00Z,30.6671,-87.9365,8.5,6.32,336.3,-9999.0,'1111122,1111122,1111122' 
DISL,ioos:station:DISL:MHPA:1,2014-01-03T08:00:00Z,30.6671,-87.9365,8.5,5.28,328.1,-9999.0,'1111122,1111122,1111122' 
DISL,ioos:station:DISL:MHPA:1,2014-01-03T08:30:00Z,30.6671,-87.9365,8.5,5.0,330.2,-9999.0,'1111122,1111122,1111122' 
DISL,ioos:station:DISL:MHPA:1,2014-01-03T09:00:00Z,30.6671,-87.9365,8.5,4.54,339.5,-9999.0,'1111122,1111122,1111122' 
DISL,ioos:station:DISL:MHPA:1,2014-01-03T09:30:00Z,30.6671,-87.9365,8.5,5.62,332.5,-9999.0,'1111122,1111122,1111122' 
DISL,ioos:station:DISL:MHPA:1,2014-01-03T10:00:00Z,30.6671,-87.9365,8.5,5.15,336.0,-9999.0,'1111122,1111122,1111122' 
DISL,ioos:station:DISL:MHPA:1,2014-01-03T10:30:00Z,30.6671,-87.9365,8.5,4.65,335.0,-9999.0,'1111122,1111122,1111122' 
DISL,ioos:station:DISL:MHPA:1,2014-01-03T11:00:00Z,30.6671,-87.9365,8.5,3.68,337.2,-9999.0,'1111122,1111122,1111122' 
DISL,ioos:station:DISL:MHPA:1,2014-01-03T11:30:00Z,30.6671,-87.9365,8.5,3.04,351.1,-9999.0,'1111122,1111122,1111122' 
DISL,ioos:station:DISL:MHPA:1,2014-01-03T12:00:00Z,30.6671,-87.9365,8.5,3.82,356.0,-9999.0,'1111122,1111122,1111122' 
DISL,ioos:station:DISL:MHPA:1,2014-01-03T12:30:00Z,30.6671,-87.9365,8.5,2.75,0.549,-9999.0,'1111122,1111122,1111122' 
DISL,ioos:station:DISL:MHPA:1,2014-01-03T13:00:00Z,30.6671,-87.9365,8.5,2.93,11.98,-9999.0,'1111122,1111122,1111122' 
DISL,ioos:station:DISL:MHPA:1,2014-01-03T13:30:00Z,30.6671,-87.9365,8.5,2.98,11.7,-9999.0,'1111122,1111122,1111122' 
DISL,ioos:station:DISL:MHPA:1,2014-01-03T14:00:00Z,30.6671,-87.9365,8.5,3.77,11.31,-9999.0,'1111122,1111122,1111122' 
DISL,ioos:station:DISL:MHPA:1,2014-01-03T14:30:00Z,30.6671,-87.9365,8.5,4.76,4.346,-9999.0,'1111122,1111122,1111122' 
DISL,ioos:station:DISL:MHPA:1,2014-01-03T15:00:00Z,30.6671,-87.9365,8.5,4.93,359.6,-9999.0,'1111122,1111122,1111122' 
DISL,ioos:station:DISL:MHPA:1,2014-01-03T15:30:00Z,30.6671,-87.9365,8.5,4.53,2.722,-9999.0,'1111122,1111122,1111122' 
DISL,ioos:station:DISL:MHPA:1,2014-01-03T16:00:00Z,30.6671,-87.9365,8.5,5.13,359.2,-9999.0,'1111122,1111122,1111122' 
DISL,ioos:station:DISL:MHPA:1,2014-01-03T16:30:00Z,30.6671,-87.9365,8.5,5.11,358.0,-9999.0,'1111122,1111122,1111122' 
DISL,ioos:station:DISL:MHPA:1,2014-01-03T17:00:00Z,30.6671,-87.9365,8.5,4.76,3.214,-9999.0,'1111122,1111122,1111122' 
DISL,ioos:station:DISL:MHPA:1,2014-01-03T17:30:00Z,30.6671,-87.9365,8.5,4.65,10.23,-9999.0,'1111122,1111122,1111122' 
DISL,ioos:station:DISL:MHPA:1,2014-01-03T18:00:00Z,30.6671,-87.9365,8.5,4.83,8.22,-9999.0,'1111122,1111122,1111122' 
DISL,ioos:station:DISL:MHPA:1,2014-01-03T18:30:00Z,30.6671,-87.9365,8.5,4.46,358.9,-9999.0,'1111122,1111122,1111122' 
DISL,ioos:station:DISL:MHPA:1,2014-01-03T19:00:00Z,30.6671,-87.9365,8.5,4.39,354.4,-9999.0,'1111122,1111122,1111122' 
DISL,ioos:station:DISL:MHPA:1,2014-01-03T19:30:00Z,30.6671,-87.9365,8.5,3.57,20.17,-9999.0,'1111122,1111122,1111122' 
DISL,ioos:station:DISL:MHPA:1,2014-01-03T20:00:00Z,30.6671,-87.9365,8.5,4.48,0.933,-9999.0,'1111122,1111122,1111122' 
DISL,ioos:station:DISL:MHPA:1,2014-01-03T20:30:00Z,30.6671,-87.9365,8.5,3.45,357.6,-9999.0,'1111122,1111122,1111122' 
DISL,ioos:station:DISL:MHPA:1,2014-01-03T21:00:00Z,30.6671,-87.9365,8.5,3.36,20.33,-9999.0,'1111122,1111122,1111122' 
DISL,ioos:station:DISL:MHPA:1,2014-01-03T21:30:00Z,30.6671,-87.9365,8.5,3.61,352.3,-9999.0,'1111122,1111122,1111122' 
DISL,ioos:station:DISL:MHPA:1,2014-01-03T22:00:00Z,30.6671,-87.9365,8.5,3.82,340.5,-9999.0,'1111122,1111122,1111122' 
DISL,ioos:station:DISL:MHPA:1,2014-01-03T22:30:00Z,30.6671,-87.9365,8.5,3.46,342.5,-9999.0,'1111122,1111122,1111122' 
DISL,ioos:station:DISL:MHPA:1,2014-01-03T23:00:00Z,30.6671,-87.9365,8.5,2.67,359.9,-9999.0,'1111122,1111122,1111122' 
DISL,ioos:station:DISL:MHPA:1,2014-01-03T23:30:00Z,30.6671,-87.9365,8.5,1.68,4.283,-9999.0,'1111122,1111122,1111122' 
DISL,ioos:station:DISL:MHPA:1,2014-01-04T00:00:00Z,30.6671,-87.9365,8.5,1.83,15.76,-9999.0,'1111122,1111122,1111122' 
DISL,ioos:station:DISL:MHPA:1,2014-01-04T00:30:00Z,30.6671,-87.9365,8.5,1.79,11.42,-9999.0,'1111122,1111122,1111122' 
DISL,ioos:station:DISL:MHPA:1,2014-01-04T01:00:00Z,30.6671,-87.9365,8.5,2.27,21.25,-9999.0,'1111122,1111122,1111122' 
DISL,ioos:station:DISL:MHPA:1,2014-01-04T01:30:00Z,30.6671,-87.9365,8.5,2.48,19.79,-9999.0,'1111122,1111122,1111122' 
DISL,ioos:station:DISL:MHPA:1,2014-01-04T02:00:00Z,30.6671,-87.9365,8.5,1.93,32.01,-9999.0,'1111122,1111122,1111122' 
DISL,ioos:station:DISL:MHPA:1,2014-01-04T02:30:00Z,30.6671,-87.9365,8.5,1.15,26.6,-9999.0,'1111122,1111122,1111122' 
DISL,ioos:station:DISL:MHPA:1,2014-01-04T03:00:00Z,30.6671,-87.9365,8.5,1.24,34.2,-9999.0,'1111122,1111122,1111122' 
DISL,ioos:station:DISL:MHPA:1,2014-01-04T03:30:00Z,30.6671,-87.9365,8.5,1.06,85.2,-9999.0,'1111122,1111122,1111122' 
DISL,ioos:station:DISL:MHPA:1,2014-01-04T04:00:00Z,30.6671,-87.9365,8.5,0.98,76.2,-9999.0,'1111122,1111122,1111122' 
DISL,ioos:station:DISL:MHPA:1,2014-01-04T04:30:00Z,30.6671,-87.9365,8.5,1.14,74.2,-9999.0,'1111122,1111122,1111122' 
DISL,ioos:station:DISL:MHPA:1,2014-01-04T05:00:00Z,30.6671,-87.9365,8.5,1.15,48.53,-9999.0,'1111122,1111122,1111122' 
DISL,ioos:station:DISL:MHPA:1,2014-01-04T05:30:00Z,30.6671,-87.9365,8.5,1.74,50.0,-9999.0,'1111122,1111122,1111122' 
DISL,ioos:station:DISL:MHPA:1,2014-01-04T06:00:00Z,30.6671,-87.9365,8.5,1.98,32.5,-9999.0,'1111122,1111122,1111122' 
DISL,ioos:station:DISL:MHPA:1,2014-01-04T06:30:00Z,30.6671,-87.9365,8.5,1.72,34.05,-9999.0,'1111122,1111122,1111122' 
DISL,ioos:station:DISL:MHPA:1,2014-01-04T07:00:00Z,30.6671,-87.9365,8.5,2.28,64.97,-9999.0,'1111122,1111122,1111122' 
DISL,ioos:station:DISL:MHPA:1,2014-01-04T07:30:00Z,30.6671,-87.9365,8.5,2.66,65.16,-9999.0,'1111122,1111122,1111122' 
DISL,ioos:station:DISL:MHPA:1,2014-01-04T08:00:00Z,30.6671,-87.9365,8.5,3.02,67.17,-9999.0,'1111122,1111122,1111122' 
DISL,ioos:station:DISL:MHPA:1,2014-01-04T08:30:00Z,30.6671,-87.9365,8.5,3.45,59.95,-9999.0,'1111122,1111122,1111122' 
DISL,ioos:station:DISL:MHPA:1,2014-01-04T09:00:00Z,30.6671,-87.9365,8.5,3.11,64.52,-9999.0,'1111122,1111122,1111122' 
DISL,ioos:station:DISL:MHPA:1,2014-01-04T09:30:00Z,30.6671,-87.9365,8.5,3.05,82.1,-9999.0,'1111122,1111122,1111122' 
DISL,ioos:station:DISL:MHPA:1,2014-01-04T10:00:00Z,30.6671,-87.9365,8.5,2.99,66.01,-9999.0,'1111122,1111122,1111122' 
DISL,ioos:station:DISL:MHPA:1,2014-01-04T10:30:00Z,30.6671,-87.9365,8.5,3.33,85.6,-9999.0,'1111122,1111122,1111122' 
DISL,ioos:station:DISL:MHPA:1,2014-01-04T11:00:00Z,30.6671,-87.9365,8.5,3.41,63.84,-9999.0,'1111122,1111122,1111122' 
DISL,ioos:station:DISL:MHPA:1,2014-01-04T11:30:00Z,30.6671,-87.9365,8.5,3.52,81.0,-9999.0,'1111122,1111122,1111122' 
DISL,ioos:station:DISL:MHPA:1,2014-01-04T12:00:00Z,30.6671,-87.9365,8.5,3.57,76.6,-9999.0,'1111122,1111122,1111122' 
DISL,ioos:station:DISL:MHPA:1,2014-01-04T12:30:00Z,30.6671,-87.9365,8.5,3.76,68.23,-9999.0,'1111122,1111122,1111122' 
DISL,ioos:station:DISL:MHPA:1,2014-01-04T13:00:00Z,30.6671,-87.9365,8.5,3.6,67.61,-9999.0,'1111122,1111122,1111122' 
DISL,ioos:station:DISL:MHPA:1,2014-01-04T13:30:00Z,30.6671,-87.9365,8.5,3.99,77.9,-9999.0,'1111122,1111122,1111122' 
DISL,ioos:station:DISL:MHPA:1,2014-01-04T14:00:00Z,30.6671,-87.9365,8.5,4.21,88.3,-9999.0,'1111122,1111122,1111122' 
DISL,ioos:station:DISL:MHPA:1,2014-01-04T14:30:00Z,30.6671,-87.9365,8.5,4.95,85.4,-9999.0,'1111122,1111122,1111122' 
DISL,ioos:station:DISL:MHPA:1,2014-01-04T15:00:00Z,30.6671,-87.9365,8.5,4.61,96.2,-9999.0,'1111122,1111122,1111122' 
DISL,ioos:station:DISL:MHPA:1,2014-01-04T15:30:00Z,30.6671,-87.9365,8.5,4.5,75.2,-9999.0,'1111122,1111122,1111122' 
DISL,ioos:station:DISL:MHPA:1,2014-01-04T16:00:00Z,30.6671,-87.9365,8.5,3.62,89.2,-9999.0,'1111122,1111122,1111122' 
DISL,ioos:station:DISL:MHPA:1,2014-01-04T16:30:00Z,30.6671,-87.9365,8.5,3.31,94.8,-9999.0,'1111122,1111122,1111122' 
DISL,ioos:station:DISL:MHPA:1,2014-01-04T17:00:00Z,30.6671,-87.9365,8.5,4.27,96.1,-9999.0,'1111122,1111122,1111122' 
DISL,ioos:station:DISL:MHPA:1,2014-01-04T17:30:00Z,30.6671,-87.9365,8.5,2.09,71.2,-9999.0,'1111122,1111122,1111122' 
DISL,ioos:station:DISL:MHPA:1,2014-01-04T18:00:00Z,30.6671,-87.9365,8.5,1.81,74.2,-9999.0,'1111122,1111122,1111122' 
DISL,ioos:station:DISL:MHPA:1,2014-01-04T18:30:00Z,30.6671,-87.9365,8.5,3.35,109.0,-9999.0,'1111122,1111122,1111122' 
DISL,ioos:station:DISL:MHPA:1,2014-01-04T19:00:00Z,30.6671,-87.9365,8.5,3.18,114.7,-9999.0,'1111122,1111122,1111122' 
DISL,ioos:station:DISL:MHPA:1,2014-01-04T19:30:00Z,30.6671,-87.9365,8.5,3.16,117.9,-9999.0,'1111122,1111122,1111122' 
DISL,ioos:station:DISL:MHPA:1,2014-01-04T20:00:00Z,30.6671,-87.9365,8.5,2.18,114.0,-9999.0,'1111122,1111122,1111122' 
DISL,ioos:station:DISL:MHPA:1,2014-01-04T20:30:00Z,30.6671,-87.9365,8.5,2.53,111.5,-9999.0,'1111122,1111122,1111122' 
DISL,ioos:station:DISL:MHPA:1,2014-01-04T21:00:00Z,30.6671,-87.9365,8.5,2.41,118.4,-9999.0,'1111122,1111122,1111122' 
DISL,ioos:station:DISL:MHPA:1,2014-01-04T21:30:00Z,30.6671,-87.9365,8.5,1.62,102.1,-9999.0,'1111122,1111122,1111122' 
DISL,ioos:station:DISL:MHPA:1,2014-01-04T22:00:00Z,30.6671,-87.9365,8.5,1.52,101.4,-9999.0,'1111122,1111122,1111122' 
DISL,ioos:station:DISL:MHPA:1,2014-01-04T22:30:00Z,30.6671,-87.9365,8.5,1.55,100.5,-9999.0,'1111122,1111122,1111122' 
DISL,ioos:station:DISL:MHPA:1,2014-01-04T23:00:00Z,30.6671,-87.9365,8.5,0.75,70.0,-9999.0,'1111122,1111122,1111122' 
DISL,ioos:station:DISL:MHPA:1,2014-01-04T23:30:00Z,30.6671,-87.9365,8.5,1.06,66.95,-9999.0,'1111122,1111122,1111122' 
DISL,ioos:station:DISL:MHPA:1,2014-01-05T00:00:00Z,30.6671,-87.9365,8.5,1.71,88.1,-9999.0,'1111122,1111122,1111122' 
DISL,ioos:station:DISL:MHPA:1,2014-01-05T00:30:00Z,30.6671,-87.9365,8.5,2.75,103.9,-9999.0,'1111122,1111122,1111122' 
DISL,ioos:station:DISL:MHPA:1,2014-01-05T01:00:00Z,30.6671,-87.9365,8.5,3.78,90.9,-9999.0,'1111122,1111122,1111122' 
DISL,ioos:station:DISL:MHPA:1,2014-01-05T01:30:00Z,30.6671,-87.9365,8.5,2.59,80.6,-9999.0,'1111122,1111122,1111122' 
DISL,ioos:station:DISL:MHPA:1,2014-01-05T02:00:00Z,30.6671,-87.9365,8.5,2.62,94.4,-9999.0,'1111122,1111122,1111122' 
DISL,ioos:station:DISL:MHPA:1,2014-01-05T02:30:00Z,30.6671,-87.9365,8.5,2.94,77.8,-9999.0,'1111122,1111122,1111122' 
DISL,ioos:station:DISL:MHPA:1,2014-01-05T03:00:00Z,30.6671,-87.9365,8.5,3.07,77.5,-9999.0,'1111122,1111122,1111122' 
DISL,ioos:station:DISL:MHPA:1,2014-01-05T03:30:00Z,30.6671,-87.9365,8.5,3.87,76.4,-9999.0,'1111122,1111122,1111122' 
DISL,ioos:station:DISL:MHPA:1,2014-01-05T04:00:00Z,30.6671,-87.9365,8.5,3.71,91.4,-9999.0,'1111122,1111122,1111122' 
DISL,ioos:station:DISL:MHPA:1,2014-01-05T04:30:00Z,30.6671,-87.9365,8.5,2.32,76.3,-9999.0,'1111122,1111122,1111122' 
DISL,ioos:station:DISL:MHPA:1,2014-01-05T05:00:00Z,30.6671,-87.9365,8.5,0.65,328.8,-9999.0,'1111122,1111122,1111122' 
DISL,ioos:station:DISL:MHPA:1,2014-01-05T05:30:00Z,30.6671,-87.9365,8.5,1.67,51.03,-9999.0,'1111122,1111122,1111122' 
DISL,ioos:station:DISL:MHPA:1,2014-01-05T06:00:00Z,30.6671,-87.9365,8.5,0.99,86.5,-9999.0,'1111122,1111122,1111122' 
DISL,ioos:station:DISL:MHPA:1,2014-01-05T06:30:00Z,30.6671,-87.9365,8.5,2.3,68.46,-9999.0,'1111122,1111122,1111122' 
DISL,ioos:station:DISL:MHPA:1,2014-01-05T07:00:00Z,30.6671,-87.9365,8.5,1.85,80.3,-9999.0,'1111122,1111122,1111122' 
DISL,ioos:station:DISL:MHPA:1,2014-01-05T07:30:00Z,30.6671,-87.9365,8.5,1.3,341.2,-9999.0,'1111122,1111122,1111122' 
DISL,ioos:station:DISL:MHPA:1,2014-01-05T08:00:00Z,30.6671,-87.9365,8.5,1.54,73.6,-9999.0,'1111122,1111122,1111122' 
DISL,ioos:station:DISL:MHPA:1,2014-01-05T08:30:00Z,30.6671,-87.9365,8.5,1.5,28.91,-9999.0,'1111122,1111122,1111122' 
DISL,ioos:station:DISL:MHPA:1,2014-01-05T09:00:00Z,30.6671,-87.9365,8.5,2.17,60.08,-9999.0,'1111122,1111122,1111122' 
DISL,ioos:station:DISL:MHPA:1,2014-01-05T09:30:00Z,30.6671,-87.9365,8.5,1.54,65.14,-9999.0,'1111122,1111122,1111122' 
DISL,ioos:station:DISL:MHPA:1,2014-01-05T10:00:00Z,30.6671,-87.9365,8.5,1.45,43.78,-9999.0,'1111122,1111122,1111122' 
DISL,ioos:station:DISL:MHPA:1,2014-01-05T10:30:00Z,30.6671,-87.9365,8.5,1.66,59.46,-9999.0,'1111122,1111122,1111122' 
DISL,ioos:station:DISL:MHPA:1,2014-01-05T11:00:00Z,30.6671,-87.9365,8.5,2.97,79.4,-9999.0,'1111122,1111122,1111122' 
DISL,ioos:station:DISL:MHPA:1,2014-01-05T11:30:00Z,30.6671,-87.9365,8.5,1.07,157.3,-9999.0,'1111122,1111122,1111122' 